[[{"header":{"parameterUnit":"m.s-1","parameterCategory":1,"la1":30.2991,"la2":30.254,"lo1":-89.0895,"lo2":-89.0444,"dx":0.0017,"dy":0.0017,"nx":28,"ny":28,"refTime":"2023-02-06T09:00:00:Z","depth":0,"parameterNumber":2,"parameterNumberName":"U-component_of_WINDS"},"data":[0,0,0,0,0,0,0,0,0,0,0,0,0,0,0,0,0,0,0,0,0,0,0,0,0,0,0,0,0,0,0,0,0,0,0,0,0,0,0,0,0,0,0,0,0,0,0,0,0,0,0,0,0,0,0,0,0,0,-5.1383,-5.1383,0,-5.1438,-5.1439,-5.1439,-5.1388,-5.1385,-5.1383,-5.1381,-5.1439,-5.1442,-5.1445,0,0,0,0,0,0,0,0,0,0,0,0,0,-5.1234,-5.1237,-5.1383,-5.1383,-5.1384,-5.1438,-5.1439,-5.1439,-5.1388,-5.1385,-5.1383,-5.138,-5.1437,-5.1442,-5.1446,0,0,0,0,0,0,0,0,0,0,0,0,0,-5.1295,-5.1238,-5.1382,-5.1365,-5.1364,-5.1438,-5.1439,-5.144,-5.1388,-5.1385,-5.1382,-5.1379,-5.1436,-5.1441,-5.1446,-5.1541,0,0,-5.1462,-5.1464,0,0,0,0,0,0,0,0,-5.1291,-5.13,-5.1367,-5.1366,-5.1365,-5.1403,-5.1407,-5.1473,-5.1389,-5.1379,-5.1381,-5.1378,-5.1429,-5.1435,-5.1452,-5.1543,-5.1546,-5.1463,-5.1466,-5.1468,-5.1469,0,0,0,0,0,0,0,-5.1287,-5.1297,-5.1404,-5.1368,-5.1367,-5.1354,-5.136,-5.1419,-5.1421,-5.138,-5.1376,-5.1383,-5.1428,-5.1447,-5.1453,-5.1546,-5.1462,-5.1467,-5.147,-5.1472,-5.1719,-5.1722,0,0,0,0,0,0,-5.1285,-5.1294,-5.1403,-5.1406,-5.132,-5.136,-5.1366,-5.1394,-5.142,-5.1421,-5.1386,-5.1381,-5.144,-5.1447,-5.1455,-5.1567,-5.1468,-5.1473,-5.1476,-5.1715,-5.1719,-5.1723,0,0,0,0,0,0,-5.1282,-5.1295,-5.14,-5.1349,-5.1362,-5.1366,-5.1398,-5.1396,-5.1415,-5.1425,-5.1425,-5.1405,-5.1438,-5.1447,-5.152,-5.1568,-5.1475,-5.148,-5.1711,-5.1717,-5.1721,-5.1791,0,0,0,0,0,0,-5.1277,-5.1294,-5.1329,-5.135,-5.1365,-5.1464,-5.1401,-5.14,-5.1424,-5.1418,-5.1443,-5.1444,-5.1436,-5.1512,-5.1525,-5.1573,-5.1484,-5.1707,-5.1714,-5.172,-5.1785,-5.1798,-5.181,0,0,0,0,0,-5.1272,-5.1347,-5.1331,-5.1345,-5.1409,-5.1467,-5.1475,-5.1464,-5.1428,-5.1464,-5.1471,-5.1443,-5.1561,-5.152,-5.1534,-5.1585,-5.1704,-5.1712,-5.1719,-5.1779,-5.1796,-5.181,0,0,0,0,0,0,-5.1331,-5.1349,-5.1332,-5.1416,-5.144,-5.1458,-5.1503,-5.1482,-5.1518,-5.151,-5.1496,-5.1502,-5.1578,-5.1589,-5.1543,-5.1678,-5.1627,-5.1638,-5.1667,-5.1683,-5.1696,-5.1691,-5.1488,0,0,0,0,0,-5.1353,-5.1399,-5.1413,-5.1485,-5.1498,-5.1499,-5.1524,-5.1513,-5.1538,-5.1548,-5.156,-5.1585,-5.1628,-5.1657,-5.1697,-5.1787,-5.1791,-5.1829,-5.1841,-5.1852,-5.1861,-5.1909,-5.1926,-5.1749,-5.1749,-5.1748,0,0,-5.14,-5.1416,-5.1445,-5.1497,-5.1515,-5.1562,-5.1508,-5.156,-5.1595,-5.1556,-5.1625,-5.1635,-5.1662,-5.1744,-5.1781,-5.1755,-5.1911,-5.1862,-5.187,-5.1873,-5.1919,-5.1936,-5.1951,-5.1754,-5.1753,-5.1752,0,0,-5.151,-5.1527,-5.1589,-5.1608,-5.1636,-5.1636,-5.1651,-5.1673,-5.1678,-5.1747,-5.1719,-5.1761,-5.1835,-5.1856,-5.1877,-5.1997,-5.1973,-5.2011,-5.2075,-5.2123,-5.2137,-5.2149,-5.2192,-5.2207,-5.202,-5.202,-5.202,0,-5.1564,-5.1634,-5.1623,-5.1678,-5.1701,-5.167,-5.1732,-5.1752,-5.1792,-5.1809,-5.178,-5.1873,-5.189,-5.1976,-5.2005,-5.2023,-5.204,-5.2006,-5.2136,-5.2148,-5.216,-5.22,-5.2216,-5.2024,-5.2024,-5.2023,-5.2023,0,-5.17,-5.175,-5.1797,-5.1836,-5.1865,-5.1924,-5.1922,-5.1953,-5.1941,-5.1945,-5.2016,-5.2035,-5.2078,-5.2099,-5.2088,-5.2184,-5.2167,-5.2138,-5.2086,-5.2181,-5.2218,-5.2234,-5.2031,-5.2029,-5.2028,-5.2027,0,0,-5.1845,-5.1879,-5.1896,-5.1914,-5.1944,-5.1982,-5.204,-5.2083,-5.2109,-5.2139,-5.2187,-5.2252,-5.2225,-5.2248,-5.224,-5.2282,-5.2376,-5.2247,-5.2248,-5.2269,-5.2483,-5.2503,-5.2521,-5.2361,-5.2364,-5.2366,-5.248,0,-5.1955,-5.2055,-5.2047,-5.2142,-5.2187,-5.2159,-5.221,-5.2234,-5.2239,-5.2279,-5.2286,-5.2331,-5.2293,-5.2307,-5.2348,-5.2355,-5.2418,-5.2347,-5.2405,-5.2407,-5.2397,-5.2541,-5.2563,-5.2669,-5.2495,-5.2497,-5.2499,0,-5.2095,-5.213,-5.2229,-5.2253,-5.2271,-5.2317,-5.2356,-5.2395,-5.2422,-5.2423,-5.2451,-5.2435,-5.2495,-5.2443,-5.2525,-5.2477,-5.2501,-5.2508,-5.2512,-5.2516,-5.2457,-5.2547,-5.2703,-5.2718,-5.2522,-5.252,-5.2519,0,-5.2189,-5.2261,-5.233,-5.2346,-5.2376,-5.2409,-5.2423,-5.2447,-5.2474,-5.2508,-5.2525,-5.2567,-5.2589,-5.2622,-5.2619,-5.2582,-5.2702,-5.265,-5.2704,-5.2704,-5.2729,-5.2727,-5.2889,-5.2747,-5.2747,-5.2746,-5.2746,0,-5.2311,-5.2373,-5.2373,-5.2415,-5.2483,-5.2475,-5.2543,-5.2554,-5.2576,-5.262,-5.2599,-5.2641,-5.2635,-5.2677,-5.2675,-5.2743,-5.2754,-5.2756,-5.2755,-5.2757,-5.2757,-5.2771,-5.2763,-5.2751,-5.275,-5.2749,-5.2748,0,-5.2427,-5.243,-5.2502,-5.2525,-5.2533,-5.2582,-5.2602,-5.2642,-5.2647,-5.2703,-5.2716,-5.2724,-5.2772,-5.2773,-5.2829,-5.2828,-5.291,-5.2901,-5.2901,-5.2898,-5.2952,-5.2946,-5.3128,-5.3151,-5.2995,-5.2997,-5.2998,0,-5.2504,-5.255,-5.2579,-5.2607,-5.2623,-5.2669,-5.2696,-5.2691,-5.272,-5.2756,-5.2792,-5.2839,-5.2876,-5.2956,-5.2966,-5.3009,-5.3,-5.3061,-5.3006,-5.3008,-5.3,-5.2996,-5.3001,-5.3071,-5.3073,-5.3074,-5.3075,0,-5.2639,-5.2639,-5.2679,-5.272,-5.2753,-5.2785,-5.2815,-5.284,-5.2838,-5.2872,-5.2922,-5.2951,-5.3009,-5.3055,-5.3098,-5.3112,-5.3094,-5.3093,-5.3107,-5.3109,-5.3106,-5.3108,-5.2928,-5.3088,-5.3087,-5.3086,-5.3085,-5.3084,-5.2737,-5.2777,-5.2804,-5.2849,-5.2872,-5.2901,-5.2939,-5.295,-5.2991,-5.3037,-5.3033,-5.3088,-5.3116,-5.317,-5.3189,-5.3233,-5.3212,-5.3233,-5.3238,-5.3243,-5.3248,-5.3101,-5.3241,-5.3241,-5.324,-5.324,-5.324,0,-5.287,-5.2886,-5.2929,-5.2971,-5.3008,-5.2988,-5.3021,-5.3052,-5.3101,-5.3129,-5.3166,-5.3224,-5.327,-5.3286,-5.333,-5.3362,-5.3355,-5.3374,-5.3371,-5.3374,-5.3265,-5.3248,-5.3379,-5.3379,-5.3379,-5.3379,-5.3379,-5.3379,-5.2943,-5.301,-5.3014,-5.3092,-5.3108,-5.3162,-5.3182,-5.3209,-5.3231,-5.3297,-5.3335,-5.3345,-5.3368,-5.3415,-5.3456,-5.346,-5.3477,-5.3499,-5.3499,-5.3396,-5.3382,-5.3369,-5.3352,-5.3503,-5.3504,-5.3604,-5.3605,-5.3606]},{"header":{"parameterUnit":"m.s-1","parameterCategory":1,"la1":30.2991,"la2":30.254,"lo1":-89.0895,"lo2":-89.0444,"dx":0.0017,"dy":0.0017,"nx":28,"ny":28,"refTime":"2023-02-06T09:00:00:Z","depth":0,"parameterNumber":3,"parameterNumberName":"V-component_of_WINDS"},"data":[0,0,0,0,0,0,0,0,0,0,0,0,0,0,0,0,0,0,0,0,0,0,0,0,0,0,0,0,0,0,0,0,0,0,0,0,0,0,0,0,0,0,0,0,0,0,0,0,0,0,0,0,0,0,0,0,0,0,1.7991,1.7991,0,1.803,1.8031,1.8031,1.8073,1.8073,1.8074,1.8075,1.8112,1.8112,1.8113,0,0,0,0,0,0,0,0,0,0,0,0,0,1.7952,1.7952,1.7991,1.7992,1.7992,1.803,1.8031,1.8031,1.8073,1.8073,1.8074,1.8075,1.8112,1.8112,1.8113,0,0,0,0,0,0,0,0,0,0,0,0,0,1.7978,1.7953,1.7991,1.8017,1.802,1.803,1.8031,1.8031,1.8073,1.8073,1.8074,1.8075,1.8112,1.8112,1.8113,1.8099,0,0,1.8115,1.8115,0,0,0,0,0,0,0,0,1.7976,1.7979,1.8013,1.8016,1.8019,1.8048,1.8031,1.8054,1.8072,1.8053,1.8075,1.8076,1.809,1.8092,1.8097,1.8101,1.8102,1.8115,1.8115,1.8116,1.8116,0,0,0,0,0,0,0,1.7974,1.7978,1.8006,1.8013,1.8017,1.8027,1.8032,1.8035,1.8065,1.8054,1.8057,1.8062,1.8091,1.8097,1.8099,1.8103,1.8115,1.8116,1.8116,1.8116,1.81,1.8099,0,0,0,0,0,0,1.7969,1.7976,1.8005,1.8008,1.7999,1.8027,1.8032,1.8037,1.8066,1.8071,1.8061,1.8063,1.8095,1.8098,1.81,1.8088,1.8116,1.8116,1.8117,1.8101,1.81,1.8099,0,0,0,0,0,0,1.7968,1.7971,1.8004,1.7993,1.7998,1.8027,1.8032,1.8038,1.8043,1.8071,1.8076,1.8061,1.8096,1.8099,1.81,1.809,1.8117,1.8117,1.8102,1.81,1.8099,1.8062,0,0,0,0,0,0,1.7966,1.797,1.7965,1.7992,1.7998,1.8003,1.8031,1.8038,1.8044,1.8048,1.8072,1.8077,1.8097,1.8099,1.81,1.8091,1.8118,1.8103,1.8101,1.81,1.8064,1.8059,1.8055,0,0,0,0,0,1.7965,1.7952,1.7965,1.7968,1.7992,1.8002,1.8005,1.803,1.8043,1.8039,1.8057,1.8076,1.809,1.8098,1.8101,1.8091,1.8103,1.8102,1.81,1.8066,1.806,1.8055,0,0,0,0,0,0,1.7921,1.7956,1.797,1.7966,1.7981,1.8009,1.8004,1.8022,1.8033,1.8036,1.8065,1.807,1.8068,1.8079,1.8088,1.8081,1.81,1.8098,1.8073,1.8068,1.8064,1.8061,1.8118,0,0,0,0,0,1.7911,1.7917,1.7946,1.7939,1.7946,1.7974,1.7979,1.7997,1.8013,1.8019,1.8037,1.8052,1.806,1.8065,1.8073,1.8066,1.8073,1.8061,1.8056,1.8053,1.8051,1.8051,1.8046,1.8093,1.8093,1.8093,0,0,1.789,1.791,1.7911,1.7931,1.7945,1.795,1.7979,1.7982,1.7987,1.8019,1.8022,1.8036,1.8054,1.8052,1.8051,1.8061,1.804,1.805,1.8047,1.8048,1.8048,1.8044,1.804,1.8091,1.8092,1.8092,0,0,1.7855,1.787,1.7867,1.7881,1.7902,1.7921,1.792,1.7946,1.7958,1.7961,1.7986,1.7992,1.8004,1.8017,1.8025,1.7998,1.8017,1.8,1.7978,1.7977,1.7973,1.797,1.7962,1.7959,1.7999,1.7999,1.7999,0,1.7826,1.7836,1.7863,1.7866,1.7875,1.7907,1.7905,1.7916,1.7939,1.7944,1.7955,1.7974,1.7989,1.7991,1.7984,1.7989,1.799,1.7998,1.7972,1.7969,1.7966,1.7959,1.7956,1.7997,1.7997,1.7997,1.7997,0,1.78,1.7806,1.7801,1.7824,1.7833,1.7833,1.7861,1.7866,1.7883,1.7901,1.7905,1.7924,1.7938,1.794,1.7956,1.7945,1.7951,1.7966,1.7986,1.7959,1.7953,1.795,1.7994,1.7994,1.7995,1.7995,0,0,1.7737,1.7778,1.7775,1.7787,1.7814,1.782,1.7822,1.7837,1.7842,1.7857,1.786,1.7872,1.7888,1.7897,1.7915,1.7914,1.7894,1.793,1.7931,1.7924,1.7885,1.7874,1.787,1.7906,1.7906,1.7905,1.7884,0,1.7708,1.7715,1.7741,1.774,1.7748,1.7779,1.7781,1.7798,1.7815,1.7824,1.7842,1.7851,1.787,1.7876,1.7877,1.7896,1.7886,1.7898,1.791,1.791,1.7906,1.7866,1.7854,1.7832,1.7881,1.7881,1.7881,0,1.7674,1.7689,1.769,1.7719,1.7723,1.7725,1.7743,1.775,1.777,1.7783,1.7795,1.7816,1.7821,1.7839,1.7847,1.7855,1.7862,1.7872,1.7872,1.7874,1.7894,1.7869,1.7826,1.7823,1.7877,1.7877,1.7877,0,1.763,1.7651,1.7654,1.7663,1.7697,1.7698,1.7712,1.7733,1.7742,1.7757,1.7763,1.7778,1.7787,1.7798,1.7823,1.7834,1.7829,1.7849,1.784,1.7839,1.7838,1.7838,1.7796,1.784,1.784,1.784,1.784,0,1.7595,1.7595,1.7636,1.7638,1.7639,1.7669,1.7669,1.7686,1.7705,1.7712,1.7739,1.7744,1.7777,1.7786,1.7806,1.781,1.7813,1.7824,1.783,1.7822,1.7821,1.7828,1.783,1.784,1.784,1.784,1.784,0,1.7547,1.7574,1.758,1.7613,1.7621,1.762,1.7648,1.7652,1.7671,1.7679,1.7683,1.7713,1.7726,1.7752,1.7771,1.7785,1.7785,1.7794,1.7779,1.7782,1.7773,1.7774,1.7735,1.7732,1.7777,1.7776,1.7776,0,1.7523,1.7524,1.7557,1.7564,1.7578,1.7588,1.7598,1.7628,1.7637,1.7662,1.7663,1.7678,1.7692,1.7711,1.7734,1.775,1.776,1.7745,1.7762,1.7756,1.7761,1.7761,1.7763,1.7741,1.7741,1.774,1.774,0,1.7479,1.7493,1.7506,1.7525,1.7536,1.7551,1.7569,1.7573,1.7607,1.7616,1.763,1.7641,1.7662,1.7677,1.7697,1.7711,1.7731,1.7734,1.7734,1.7727,1.7718,1.7724,1.777,1.7735,1.7736,1.7736,1.7736,1.7736,1.7443,1.7446,1.7471,1.7485,1.7502,1.7518,1.7524,1.7545,1.7558,1.7578,1.7595,1.7609,1.7631,1.766,1.7673,1.7684,1.7694,1.7692,1.7692,1.7691,1.7689,1.7716,1.7687,1.7688,1.7688,1.7688,1.7688,0,1.7401,1.742,1.7433,1.7457,1.7469,1.7488,1.7509,1.7517,1.7529,1.7549,1.7563,1.758,1.7596,1.7621,1.7639,1.7643,1.7653,1.7647,1.7647,1.7651,1.7678,1.7678,1.7639,1.7639,1.7639,1.7639,1.7639,1.7639,1.7381,1.7389,1.7406,1.7422,1.744,1.7454,1.7465,1.748,1.7496,1.7515,1.7529,1.7546,1.7569,1.7589,1.7604,1.7611,1.7617,1.7608,1.7618,1.7644,1.7648,1.7653,1.7653,1.7609,1.7609,1.759,1.759,1.759]}]]